This demonstration page uses our WeatherBlox Daily Observations layout. Learn more.

Left ArrowRight Arrow

39.08367, -84.50855

Hourly Observations for April 25, 2017

Temp ( °F °C ) Dew Point ( °F °C ) Humidity (%) Winds ( mph kmh ) Pressure ( in mb ) Visibility ( mi km ) Precip ( " mm )
12:53 am 00:53 Mostly Cloudy 58 14.4 54 12.2 87 87 ENE 5 7 29.81 1010 10 16 N/A
1:24 am 01:24 Mostly Cloudy 57 14 54 12 88 88 ENE 3 6 29.83 1010 10 16 N/A
1:53 am 01:53 Partly Cloudy 55 12.8 54 12.2 96 96 E 5 7 29.82 1010 10 16 N/A
2:53 am 02:53 Clear 52 11.1 52 11.1 100 100 NNE 3 6 29.80 1009 10 16 N/A
3:53 am 03:53 Clear 51 10.6 51 10.6 100 100 E 3 6 29.80 1009 9 14 N/A
4:53 am 04:53 Clear 52 11.1 52 11.1 100 100 N N/A 29.80 1009 9 14 N/A
5:53 am 05:53 Clear 51 10.6 51 10.6 100 100 N N/A 29.80 1009 8 13 N/A
6:53 am 06:53 Sunny 50 10 50 10 100 100 N N/A 29.82 1010 10 16 N/A
7:53 am 07:53 Sunny 53 11.7 52 11.1 96 96 N N/A 29.82 1010 10 16 N/A
8:53 am 08:53 Sunny 58 14.4 53 11.7 84 84 N N/A 29.82 1010 10 16 N/A
9:53 am 09:53 Sunny 62 16.7 54 12.2 75 75 NNE 5 7 29.82 1010 10 16 N/A
10:53 am 10:53 Sunny 64 17.8 57 13.9 78 78 N N/A 29.81 1010 10 16 N/A
11:53 am 11:53 Partly Cloudy 70 21.1 59 15 68 68 N N/A 29.78 1009 10 16 N/A
12:53 pm 12:53 Mostly Sunny 71 21.7 59 15 66 66 VRB 6 9 29.76 1008 10 16 N/A
1:53 pm 13:53 Partly Cloudy 73 22.8 60 15.6 64 64 S 8 13 29.74 1007 10 16 N/A
2:53 pm 14:53 Mostly Cloudy 73 22.8 59 15 62 62 VRB 5 7 29.72 1007 10 16 N/A
3:53 pm 15:53 Mostly Cloudy 76 24.4 61 16.1 60 60 WSW 6 9 29.70 1006 10 16 N/A
4:53 pm 16:53 Partly Cloudy 76 24.4 62 16.7 62 62 SW 5 7 29.69 1005 10 16 N/A
5:53 pm 17:53 Mostly Cloudy 73 22.8 60 15.6 64 64 SSE 3 6 29.68 1005 10 16 N/A
6:53 pm 18:53 Mostly Sunny 75 23.9 61 16.1 62 62 N N/A 29.67 1005 10 16 N/A
7:53 pm 19:53 Partly Cloudy 72 22.2 60 15.6 66 66 SE 5 7 29.66 1005 10 16 N/A
8:53 pm 20:53 Clear 63 17.2 60 15.6 90 90 N N/A 29.67 1005 10 16 N/A
9:53 pm 21:53 Clear 64 17.8 60 15.6 87 87 SE 3 6 29.69 1005 10 16 N/A
10:53 pm 22:53 Clear 62 16.7 60 15.6 93 93 S 5 7 29.69 1005 10 16 N/A
11:53 pm 23:53 Clear 59 15 59 15 100 100 S 5 7 29.69 1005 10 16 N/A

Powered by AerisWeather